Hourly Weather Bolshie Peksely

Today, 20 June, Sunday

Time Temperature Precipitation Wind Pressure Humidity
00:00 +18°C° 0 mm 1 mps 755 mmHg 86%
01:00 +18°C° 0 mm 1 mps 755 mmHg 87%
02:00 +16°C° 0 mm 1 mps 756 mmHg 89%
03:00 +16°C° 0 mm 1 mps 756 mmHg 90%
04:00 +18°C° 0 mm 1 mps 756 mmHg 88%
05:00 +19°C° 0 mm 1 mps 756 mmHg 86%
06:00 +20°C° 0 mm 1 mps 756 mmHg 83%
07:00 +22°C° 0 mm 1 mps 756 mmHg 78%
08:00 +23°C° 0 mm 1 mps 755 mmHg 72%
09:00 +25°C° 0 mm 1 mps 756 mmHg 67%
10:00 +26°C° 0 mm 1 mps 755 mmHg 62%
11:00 +27°C° 0 mm 1 mps 755 mmHg 58%
12:00 +28°C° 0 mm 2 mps 755 mmHg 53%
13:00 +29°C° 0 mm 2 mps 755 mmHg 52%
14:00 +29°C° 0 mm 1 mps 755 mmHg 51%
15:00 +29°C° 0 mm 1 mps 755 mmHg 50%
16:00 +29°C° 0 mm 1 mps 754 mmHg 55%
17:00 +29°C° 0 mm 1 mps 754 mmHg 60%
18:00 +28°C° 0 mm 2 mps 754 mmHg 65%
19:00 +26°C° 0 mm 1 mps 754 mmHg 71%
20:00 +24°C° 0 mm 1 mps 754 mmHg 76%
21:00 +22°C° 0 mm 1 mps 754 mmHg 82%
22:00 +22°C° 0 mm 1 mps 754 mmHg 84%
23:00 +21°C° 0 mm 1 mps 754 mmHg 85%

Tomorrow, 21 June, Monday

Time Temperature Precipitation Wind Pressure Humidity
00:00 +20°C° 0 mm 1 mps 754 mmHg 87%
01:00 +18°C° 0 mm 0 mps 754 mmHg 87%
02:00 +18°C° 0 mm 0 mps 754 mmHg 88%
03:00 +18°C° 0 mm 0 mps 754 mmHg 89%
04:00 +18°C° 0 mm 0 mps 754 mmHg 87%
05:00 +19°C° 0 mm 0 mps 754 mmHg 85%
06:00 +20°C° 0 mm 0 mps 754 mmHg 84%
07:00 +23°C° 0 mm 1 mps 754 mmHg 79%
08:00 +25°C° 0 mm 1 mps 755 mmHg 74%
09:00 +26°C° 0 mm 1 mps 755 mmHg 69%
10:00 +27°C° 0 mm 1 mps 755 mmHg 65%
11:00 +28°C° 0 mm 1 mps 754 mmHg 61%
12:00 +29°C° 0 mm 2 mps 754 mmHg 56%
13:00 +30°C° 0 mm 2 mps 754 mmHg 55%
14:00 +30°C° 0 mm 2 mps 754 mmHg 53%
15:00 +30°C° 0 mm 2 mps 754 mmHg 52%
16:00 +30°C° 0 mm 2 mps 754 mmHg 56%
17:00 +29°C° 0 mm 1 mps 754 mmHg 61%
18:00 +29°C° 0 mm 1 mps 753 mmHg 66%
19:00 +27°C° 0 mm 1 mps 754 mmHg 71%
20:00 +25°C° 0 mm 1 mps 754 mmHg 75%
21:00 +23°C° 0 mm 1 mps 754 mmHg 80%
22:00 +23°C° 0 mm 1 mps 754 mmHg 81%
23:00 +22°C° 0 mm 1 mps 754 mmHg 83%

Day after tomorrow, 22 June, Tuesday

Time Temperature Precipitation Wind Pressure Humidity
00:00 +21°C° 0 mm 1 mps 754 mmHg 85%
01:00 +21°C° 0 mm 1 mps 754 mmHg 85%
02:00 +20°C° 0 mm 1 mps 754 mmHg 86%
03:00 +20°C° 0 mm 1 mps 754 mmHg 86%
04:00 +21°C° 0 mm 1 mps 754 mmHg 84%
05:00 +22°C° 0 mm 1 mps 754 mmHg 82%
06:00 +23°C° 0 mm 1 mps 754 mmHg 80%
07:00 +24°C° 0 mm 1 mps 754 mmHg 75%
08:00 +26°C° 0 mm 1 mps 754 mmHg 69%
09:00 +28°C° 0 mm 1 mps 755 mmHg 63%
10:00 +29°C° 0 mm 1 mps 755 mmHg 59%
11:00 +30°C° 0 mm 1 mps 755 mmHg 55%
12:00 +31°C° 0 mm 1 mps 755 mmHg 51%
13:00 +31°C° 0 mm 1 mps 754 mmHg 49%
14:00 +31°C° 0 mm 1 mps 754 mmHg 48%
15:00 +32°C° 0 mm 1 mps 754 mmHg 46%
16:00 +31°C° 0 mm 1 mps 754 mmHg 51%
17:00 +31°C° 0 mm 1 mps 754 mmHg 56%
18:00 +31°C° 0 mm 1 mps 754 mmHg 60%
19:00 +28°C° 0 mm 1 mps 754 mmHg 65%
20:00 +26°C° 0 mm 1 mps 754 mmHg 69%
21:00 +22°C° 0 mm 0 mps 754 mmHg 73%
22:00 +22°C° 0 mm 0 mps 754 mmHg 74%
23:00 +23°C° 0 mm 1 mps 754 mmHg 75%

23 June, Wednesday

Time Temperature Precipitation Wind Pressure Humidity
00:00 +22°C° 0 mm 1 mps 754 mmHg 77%
01:00 +20°C° 0 mm 0 mps 754 mmHg 78%
02:00 +19°C° 0 mm 0 mps 754 mmHg 80%
03:00 +19°C° 0 mm 0 mps 754 mmHg 81%
04:00 +20°C° 0 mm 0 mps 754 mmHg 79%
05:00 +21°C° 0 mm 0 mps 754 mmHg 78%
06:00 +22°C° 0 mm 0 mps 754 mmHg 76%
07:00 +23°C° 0 mm 0 mps 754 mmHg 71%
08:00 +27°C° 0 mm 1 mps 754 mmHg 66%
09:00 +29°C° 0 mm 1 mps 754 mmHg 61%
10:00 +30°C° 0 mm 1 mps 754 mmHg 57%
11:00 +31°C° 0 mm 1 mps 754 mmHg 53%
12:00 +32°C° 0 mm 1 mps 754 mmHg 49%
13:00 +32°C° 0 mm 1 mps 754 mmHg 48%
14:00 +32°C° 0 mm 1 mps 754 mmHg 46%
15:00 +32°C° 0 mm 1 mps 754 mmHg 45%
16:00 +32°C° 0 mm 1 mps 754 mmHg 50%
17:00 +32°C° 0 mm 1 mps 754 mmHg 54%
18:00 +31°C° 0 mm 1 mps 753 mmHg 59%
19:00 +29°C° 0 mm 1 mps 753 mmHg 63%
20:00 +27°C° 0 mm 1 mps 753 mmHg 66%
21:00 +25°C° 0 mm 1 mps 753 mmHg 70%
22:00 +22°C° 0 mm 0 mps 753 mmHg 72%
23:00 +22°C° 0 mm 0 mps 753 mmHg 75%

24 June, Thursday

Time Temperature Precipitation Wind Pressure Humidity
00:00 +21°C° 0 mm 0 mps 753 mmHg 77%
01:00 +21°C° 0 mm 0 mps 753 mmHg 79%
02:00 +20°C° 0 mm 0 mps 753 mmHg 80%
03:00 +20°C° 0 mm 0 mps 754 mmHg 82%
04:00 +21°C° 0 mm 0 mps 754 mmHg 80%
05:00 +22°C° 0 mm 0 mps 754 mmHg 79%
06:00 +23°C° 0 mm 0 mps 754 mmHg 77%
07:00 +24°C° 0 mm 0 mps 753 mmHg 71%
08:00 +26°C° 0 mm 0 mps 753 mmHg 66%
09:00 +30°C° 0 mm 1 mps 753 mmHg 60%
10:00 +31°C° 0 mm 1 mps 753 mmHg 56%
11:00 +32°C° 0 mm 1 mps 753 mmHg 52%
12:00 +33°C° 0 mm 1 mps 753 mmHg 48%
13:00 +33°C° 0 mm 1 mps 753 mmHg 47%
14:00 +33°C° 0 mm 1 mps 752 mmHg 46%
15:00 +34°C° 0 mm 2 mps 752 mmHg 45%
16:00 +34°C° 0 mm 2 mps 752 mmHg 50%
17:00 +32°C° 0 mm 1 mps 752 mmHg 54%
18:00 +32°C° 0 mm 1 mps 752 mmHg 59%
19:00 +30°C° 0 mm 1 mps 751 mmHg 64%
20:00 +28°C° 0 mm 1 mps 751 mmHg 69%
21:00 +26°C° 0 mm 1 mps 750 mmHg 74%
22:00 +25°C° 0 mm 1 mps 751 mmHg 77%
23:00 +24°C° 0 mm 1 mps 751 mmHg 81%

25 June, Friday

Time Temperature Precipitation Wind Pressure Humidity
00:00 +23°C° 0 mm 1 mps 751 mmHg 84%
01:00 +23°C° 0 mm 1 mps 751 mmHg 86%
02:00 +23°C° 0 mm 1 mps 751 mmHg 88%
03:00 +21°C° 0 mm 0 mps 751 mmHg 89%
04:00 +23°C° 0 mm 1 mps 751 mmHg 88%
05:00 +24°C° 0 mm 1 mps 751 mmHg 86%
06:00 +25°C° 0 mm 1 mps 751 mmHg 85%
07:00 +26°C° 0 mm 1 mps 750 mmHg 79%
08:00 +28°C° 0 mm 1 mps 750 mmHg 73%
09:00 +29°C° 0 mm 1 mps 750 mmHg 68%
10:00 +30°C° 0 mm 1 mps 750 mmHg 63%
11:00 +31°C° 0 mm 1 mps 750 mmHg 58%
12:00 +32°C° 0 mm 1 mps 750 mmHg 53%
13:00 +34°C° 0 mm 2 mps 750 mmHg 51%
14:00 +34°C° 0 mm 2 mps 749 mmHg 49%
15:00 +34°C° 0 mm 2 mps 749 mmHg 47%
16:00 +34°C° 0 mm 2 mps 749 mmHg 52%
17:00 +32°C° 0 mm 2 mps 748 mmHg 57%
18:00 +31°C° 0 mm 2 mps 748 mmHg 63%
19:00 +29°C° 0.2 mm 2 mps 748 mmHg 68%
20:00 +26°C° 0.2 mm 2 mps 748 mmHg 74%
21:00 +24°C° 0.2 mm 1 mps 748 mmHg 80%
22:00 +23°C° 0.1 mm 1 mps 748 mmHg 81%
23:00 +23°C° 0.1 mm 1 mps 748 mmHg 82%
Show more